Regional Weather Roundup
Issued by NWS

Home | Current Version | Previous Version | Graphics & Text | Print | Product List | Glossary Off
Versions: 1 2 3 4 5 6 7 8 9 10 11 12 13 14 15 16 17 18 19 20 21 22 23 24 25 26 27 28 29 30 31 32 33 34 35 36 37 38 39 40 41 42 43 44 45 46 47 48 49 50

000
ASUS43 KTOP 231408
RWRKS

WEATHER ROUNDUP FOR KANSAS
NATIONAL WEATHER SERVICE GOODLAND KS
800 AM CST FRI FEB 23 2018

NOTE:  "FAIR" INDICATES FEW OR NO CLOUDS BELOW 12,000 FEET WITH NO
SIGNIFICANT WEATHER AND/OR OBSTRUCTIONS TO VISIBILITY.

KSZ001>006-013>018-027>032-041>047-231500-
NORTHWEST KANSAS

CITY           SKY/WX    TMP DP  RH WIND       PRES   REMARKS
GOODLAND       FOG       17  15  92 W7        30.12R VSB 1/4
HAYS           CLOUDY    24  23  96 NE5       30.24R FOG
HILL CITY      CLOUDY    22  22 100 VRB5      30.22R FOG
RUSSELL        CLOUDY    26  24  92 CALM      30.23R
$$

KSZ061>065-074>080-084>089-231500-
SOUTHWEST KANSAS

CITY           SKY/WX    TMP DP  RH WIND       PRES   REMARKS
DODGE CITY     CLOUDY    29  27  92 E9        30.20R FOG
ELKHART        SNOW      29  29 100 NE9       30.12R VSB<1/4
GARDEN CITY    CLOUDY    27  26  96 E10       30.17R FOG     WCI  17
GREAT BEND     CLOUDY    26  25  96 N9        30.25R
LIBERAL        SNOW      27  26  96 NE7       30.15F VSB 1/4
PRATT          CLOUDY    30  29  96 NE5       30.25R FOG
$$

KSZ066>073-081>083-090>101-231500-
SOUTHEAST KANSAS

CITY           SKY/WX    TMP DP  RH WIND       PRES   REMARKS
CHANUTE        CLOUDY    36  34  92 CALM      30.28R
COFFEYVILLE    CLOUDY    37  36  96 CALM      30.29R
HUTCHINSON     CLOUDY    31  29  92 NE5       30.26R
MEDICINE LODGE   N/A     32  30  92 E6        30.23S
NEWTON         CLOUDY    30  28  92 NE7       30.27R
PARSONS        CLOUDY    36  36 100 CALM      30.29R
WICHITA INTL   CLOUDY    33  31  92 N7        30.27R
WICHITA JABRA  CLOUDY    32  31  96 N5        30.27R
WICHITA MCCONL CLOUDY    32  32  99 CALM      30.27R
WINFIELD       CLOUDY    33  33 100 NE3       30.28R
$$

KSZ007>012-019>026-033>040-048>060-102>105-231500-
NORTHEAST KANSAS

CITY           SKY/WX    TMP DP  RH WIND       PRES   REMARKS
CONCORDIA      CLOUDY    20  19  96 CALM      30.26R
EMPORIA        CLOUDY    31  29  92 N6        30.27R
LAWRENCE       CLOUDY    33  31  92 NW6       30.28R
MANHATTAN      CLOUDY    31  25  78 N5        30.28R
MARYSVILLE     CLOUDY    28  27  93 CALM      30.27R
OLATHE IND     CLOUDY    32  32 100 NW3       30.29R
OLATHE EXE     CLOUDY    32  32 100 NW5       30.27R FOG
SALINA         CLOUDY    28  26  92 N5        30.29R
TOPEKA BILLARD CLOUDY    33  30  88 NW7       30.27R
TOPEKA FORBES  CLOUDY    33  30  88 N9        30.26S
$$




USA.gov is the U.S. government's official web portal to all federal, state and local government web resources and services.